Starlink 30114

operational
NORAD ID: 56826 Int'l Des: 2023-079 Owner: SPXS Country: US Constellation: starlink
LEOCIRCULAR

About Starlink 30114

Description loading...

Live Position

Loading 3D Globe...

Upcoming Passes

Altitude History

Altitude vs Time

uPlot chart will show altitude changes over time

Two-Line Element Set

1 56826U 23079D 25260.19845811 -.00000187 00000-0 12133-5 0 9992
2 56826 43.0046 330.1568 0001234 268.1494 91.9207 15.02535017127104
Epoch: Sep 17, 2025 • Age: 23 hours

Current Status

Altitude 558.6 km
Velocity 7.59 km/s
Sub-Earth Point 16.35°N, 72.55°E
Launch Date Jun 4, 2023
Age 2.2 years
Type internet

Technical Details

Classification Payload
Mass 730.00 kg
Dry Mass 700.00 kg
Total Mass 730.00 kg
Length 0.30 m
Diameter 4.10 m
Span 29.00 m
Shape Box + pan
Manufacturer SPXS
Bus Type Starlink V2M
Phase Status In Orbit
Owner/State SPXS/US

Large Constellations

Loading constellations...